Home   Weather   Melilla   Past weeks

Flag for Spain Past Weather in Melilla, Melilla, Spain — Yesterday and Last 2 Weeks

Now
63 °F

Mild.


Feels Like: 63 °F
Forecast: 59 / 65 °F
Wind: 13 mph from West

Location: Melilla

Current Time: Apr 26, 2017 at 11:35:18 pm

Latest Report: Apr 26, 2017 at 11:00 pm


Visibility: N/A

Pressure: 29.85 "Hg

Humidity: 71%

Dew Point: 54 °F

Location of MelillaLocation

Past Weather in Melilla — Graph

°F

Melilla Temperature Yesterday

Maximum temperature yesterday: 71 °F (at 6:00 pm)
Minimum temperature yesterday: 60 °F (at 3:00 am)
Average temperature yesterday: 64 °F

High & Low Weather Summary for the Past Weeks

 TemperatureHumidityPressure
High79 °F (Apr 15, 4:00 pm)94% (Apr 23, 3:00 am)30.24 "Hg (Apr 23, 3:00 am)
Low51 °F (Apr 12, 8:00 am)31% (Apr 15, 3:00 pm)29.80 "Hg (Apr 26, 6:00 pm)
Average64 °F72%30.04 "Hg
* Reported Apr 11 10:00 pm — Apr 26 10:00 pm, Melilla, Weather by CustomWeather, © 2017

Note: Actual official high and low records may vary slightly from our data, if they occured in-between our weather recording intervals... More about our weather records

Advertising

Melilla Weather History for the Previous 24 Hours

Scroll right to see more
 ConditionsComfort  
Time TempWeatherWind HumidityBarometerVisibility
10:00 pm
Wed, Apr 26
64 °FMild.12 mph71%29.83 "HgN/A
9:00 pm65 °FMild.12 mph68%29.82 "HgN/A
7:00 pm69 °FMild.12 mph60%29.81 "HgN/A
6:00 pm69 °FMild.12 mph60%29.80 "HgN/A
5:00 pm72 °FOvercast.9 mph50%29.82 "Hg16 mi
4:00 pm70 °FMild.10 mph53%29.83 "HgN/A
3:00 pm72 °FMild.10 mph52%29.83 "HgN/A
2:00 pm71 °FOvercast.7 mph54%29.84 "Hg12 mi
1:00 pm71 °FMild.8 mph53%29.84 "HgN/A
12:00 pm69 °FMild.8 mph56%29.85 "HgN/A
11:00 am68 °FPartly sunny.7 mph65%29.84 "Hg12 mi
10:00 am67 °FMild.7 mph72%29.84 "HgN/A
9:00 am64 °FMild.8 mph79%29.84 "HgN/A
8:00 am61 °FPartly sunny.5 mph84%29.83 "Hg9 mi
7:00 am62 °FCool.3 mph81%29.82 "HgN/A
6:00 am63 °FMild.3 mph75%29.81 "HgN/A
5:00 am63 °FMild.3 mph77%29.83 "HgN/A
4:00 am64 °FMild.3 mph74%29.83 "HgN/A
3:00 am64 °FMild.6 mph73%29.84 "HgN/A
2:00 am64 °FMild.8 mph75%29.86 "HgN/A
1:00 am64 °FMild.3 mph74%29.88 "HgN/A
12:00 am64 °FMild.3 mph71%29.89 "HgN/A
11:00 pm
Tue, Apr 25
65 °FMild.9 mph69%29.88 "HgN/A
Weather by CustomWeather, © 2017

See weather overviewHow to use our weather pages